Location: Grange Verzio
(44.5000°N, 6.9833°E)
Time: 17:39:36
(UTC+00:00)

Cosmos 2219 Rocket - Pass Details

Date: 01 October 2023
Orbit: 826 x 848 km, 71.0° (Epoch: 08 December)

Event Time Altitude Azimuth Distance (km) Brightness Sun altitude
Rises 01:55:44 0° 341° (NNW) 3,396 5.6 -36.5°
Reaches altitude 10° 01:58:29 10° 352° (N) 2,461 4.9 -36.1°
Maximum altitude 02:03:25 30° 53° (NE) 1,465 3.9 -35.4°
Drops below altitude 10° 02:08:21 10° 114° (ESE) 2,462 4.9 -34.7°
Sets 02:11:05 0° 125° (SE) 3,396 5.6 -34.3°
